Weather in Novonikol'skoye

Russia / Volgograd Oblast     49°11′44″N   45°00′32″E
temp.,
°C
wind,
m/s
gust,
m/s
humid.,
%
clouds,
%
prec.,
mm/h
press.,
hPa
HPBL,
m
6 august, fri
fri600:00+22ene334920 0.0 101517
03:00+21ne445392 0.0 101532
06:00+20ne34575 0.0 101663
09:00+24ene45455 0.0 1015357
12:00+26ene453952 0.0 1014694
15:00+28ene443510 0.0 1013788
18:00+27e4636100 0.0 1012352
21:00+25ene563879 0.0 101253
7 august, sat
sat700:00+22ene4743100 0.0 101373
03:00+21ene474751 0.0 101384
06:00+21ene4846100 0.0 1013122
09:00+25ese6838100 0.0 1012316
12:00+28ese6832100 0.0 1011680
15:00+29e6730100 0.0 1010698
18:00+29e6930100 0.0 1010184
21:00+26e583594 0.0 101172
8 august, sun
sun800:00+24ene5839100 0.0 101183
03:00+23ene5741100 0.0 101279
06:00+23e594389 0.0 1013125
09:00+27ese81134100 0.0 1013318
12:00+29ese81229100 0.0 1012411
15:00+30e8112717 0.0 1012557
18:00+30e8122698 0.0 1011298
21:00+28ene81429100 0.0 1013213
9 august, mon
mon900:00+27ene7133663 0.0 1013216
03:00+27e9153795 0.0 1013247
06:00+26e91540100 0.0 1014278
09:00+27ese101436100 0.0 1014382
12:00+29ese91232100 0.0 1014524
15:00+30ese9102995 0.0 1013761
18:00+30ese71130100 0.0 1013365
21:00+26ene6104058 0.0 1014137
10 august, tue
tue1000:00+25ene584088 0.0 1014122
03:00+23ne594282 0.0 101398
06:00+23ne6942100 0.0 1012147
09:00+27e6934100 0.0 1012327
12:00+29ese81132100 0.0 1010615
15:00+26wsw1144100 0.0 100952
18:00+29se4742100 0.0 1009272
21:00+25e35465 0.0 101044